Location: Albany
(35.0170°S, 117.8920°E)
Time: 16:55:24
(UTC+08:00)

Explorer 11/Cluster Stage 4 - Pass Details

Date: 01 February 2021
Orbit: 467 x 1257 km, 28.8° (Epoch: 02 March)

Event Time Altitude Azimuth Distance (km) Brightness Sun altitude
Rises 10:53:22 0° 275° (W) 3,588 9.8 63.3°
Reaches altitude 10° 10:57:29 10° 298° (WNW) 2,442 9.1 64.0°
Maximum altitude 11:00:23 14° 328° (NNW) 2,024 8.9 64.4°
Drops below altitude 10° 11:03:00 10° 360° (N) 2,160 9.2 64.9°
Sets 11:06:16 0° 25° (NNE) 2,906 9.8 65.4°
